User: anonymous   Login
Location: Unspecified
(0.0000°N, 0.0000°E)
Time: 09:10:03
(UTC+00:00)
Language:

BIROS - Orbit

View from above orbital plane
View from above orbital plane
View from above satellite
View from above satellite

Ground track
Ground track

The orbit data is extracted from the following two-line orbital elements,

1 41604U 16040F   19197.14986527 +.00000261 +00000-0 +14541-4 0  9993
2 41604 097.3628 257.8319 0010793 292.6624 067.3470 15.21737487170075
Epoch (UTC): 16 July 2019 03:35:48
Eccentricity: 0.0010793
inclination: 97.3628°
perigee height: 493 km
apogee height: 508 km
right ascension of ascending node: 257.8319°
argument of perigee: 292.6624°
revolutions per day: 15.21737487
mean anomaly at epoch: 67.3470°
orbit number at epoch: 17007

The dashed part of the orbit path shows where the satellite is in the earth's shadow,  

DLR